[[{"header":{"parameterUnit":"m.s-1","parameterCategory":1,"la1":30.2991,"la2":30.254,"lo1":-89.0895,"lo2":-89.0444,"dy":0.0017,"dx":0.0017,"nx":28,"ny":28,"refTime":"2025-08-17T09:00:00:Z","depth":0,"parameterNumber":2,"parameterNumberName":"U-component_of_WINDS"},"data":[0,0,0,0,0,0,0,0,0,0,0,0,0,0,0,0,0,0,0,0,0,0,0,0,0,0,0,0,0,0,0,0,0,0,0,0,0,0,0,0,0,0,0,0,0,0,0,0,0,0,0,0,0,0,0,0,0,0,0.98,0.98,0,0.9817,0.9817,0.9817,0.9814,0.9814,0.9813,0.9813,0.983,0.9831,0.9832,0,0,0,0,0,0,0,0,0,0,0,0,0,0.9764,0.9764,0.98,0.98,0.98,0.9817,0.9817,0.9817,0.9814,0.9814,0.9813,0.9813,0.983,0.9831,0.9832,0,0,0,0,0,0,0,0,0,0,0,0,0,0.978,0.9764,0.98,0.9801,0.9801,0.9817,0.9817,0.9817,0.9814,0.9814,0.9813,0.9813,0.983,0.9831,0.9832,0.9848,0,0,0.9835,0.9836,0,0,0,0,0,0,0,0,0.9779,0.9781,0.98,0.9801,0.9801,0.9813,0.9811,0.9828,0.9814,0.9809,0.9813,0.9812,0.9825,0.9826,0.983,0.9849,0.9849,0.9835,0.9836,0.9836,0.9837,0,0,0,0,0,0,0,0.9778,0.978,0.9807,0.9801,0.9801,0.98,0.9802,0.9814,0.9819,0.9809,0.9809,0.9811,0.9825,0.9829,0.9831,0.985,0.9835,0.9836,0.9837,0.9837,0.9882,0.9883,0,0,0,0,0,0,0.9777,0.978,0.9806,0.9807,0.9789,0.9801,0.9803,0.9809,0.9819,0.982,0.9812,0.9811,0.9828,0.9829,0.9831,0.9851,0.9836,0.9837,0.9838,0.9882,0.9883,0.9883,0,0,0,0,0,0,0.9776,0.9779,0.9805,0.9793,0.9797,0.9802,0.9809,0.981,0.9815,0.9821,0.9822,0.9815,0.9827,0.983,0.9844,0.9852,0.9838,0.9839,0.9881,0.9882,0.9883,0.9891,0,0,0,0,0,0,0.9775,0.9779,0.9785,0.9793,0.9797,0.9818,0.981,0.9811,0.9817,0.9816,0.9825,0.9826,0.9827,0.9842,0.9845,0.9853,0.984,0.9881,0.9882,0.9883,0.989,0.9892,0.9894,0,0,0,0,0,0.9773,0.9786,0.9785,0.9789,0.9805,0.9818,0.982,0.9822,0.9817,0.9824,0.9828,0.9825,0.985,0.9844,0.9847,0.9855,0.988,0.9881,0.9883,0.9889,0.9892,0.9894,0,0,0,0,0,0,0.9779,0.9788,0.9786,0.9803,0.981,0.9818,0.9826,0.9825,0.9833,0.9832,0.9834,0.9836,0.985,0.9854,0.9847,0.9872,0.9865,0.9866,0.9869,0.9871,0.9873,0.9871,0.9841,0,0,0,0,0,0.9782,0.9791,0.9799,0.9812,0.9816,0.982,0.9826,0.9827,0.9834,0.9837,0.9842,0.9849,0.9859,0.9865,0.9874,0.989,0.9892,0.9898,0.99,0.9901,0.9903,0.9912,0.9914,0.9887,0.9887,0.9887,0,0,0.9788,0.9794,0.98,0.9813,0.9819,0.9829,0.9823,0.9834,0.9841,0.9839,0.9852,0.9856,0.9864,0.988,0.9887,0.9884,0.9911,0.9903,0.9904,0.9905,0.9913,0.9916,0.9918,0.9888,0.9888,0.9888,0,0,0.9805,0.981,0.9822,0.9828,0.9837,0.9839,0.9842,0.9851,0.9853,0.9867,0.9865,0.9874,0.9891,0.9896,0.9902,0.9921,0.9919,0.9924,0.9933,0.9942,0.9944,0.9946,0.9953,0.9955,0.9925,0.9925,0.9925,0,0.9811,0.9827,0.9828,0.984,0.9846,0.9844,0.9856,0.9862,0.9873,0.9877,0.9873,0.9893,0.9899,0.9916,0.992,0.9924,0.9928,0.9923,0.9944,0.9946,0.9947,0.9954,0.9957,0.9926,0.9926,0.9926,0.9926,0,0.9835,0.9845,0.9854,0.9865,0.9872,0.9884,0.9887,0.9894,0.9894,0.9897,0.9911,0.9917,0.9928,0.9932,0.9932,0.9949,0.9947,0.9943,0.9936,0.995,0.9957,0.9959,0.9926,0.9926,0.9926,0.9926,0,0,0.9855,0.9867,0.987,0.9876,0.9885,0.9893,0.9905,0.9915,0.9921,0.9929,0.9938,0.9952,0.9949,0.9955,0.9956,0.9964,0.9979,0.9959,0.9959,0.9963,0.9998,1.0001,1.0004,0.9977,0.9978,0.9978,0.9997,0,0.9873,0.9894,0.9896,0.9914,0.9924,0.9923,0.9933,0.9939,0.9943,0.9951,0.9955,0.9965,0.996,0.9963,0.9971,0.9975,0.9986,0.9974,0.9987,0.9987,0.9985,1.0007,1.001,1.0028,1.0,1.0,1.0001,0,0.9897,0.9906,0.9925,0.9933,0.9938,0.9947,0.9956,0.9965,0.9972,0.9974,0.9981,0.9981,0.9992,0.9985,1.0001,0.9993,0.9998,1.0001,1.0002,1.0003,0.9995,1.0009,1.0033,1.0036,1.0004,1.0004,1.0004,0,0.9911,0.9927,0.9941,0.9945,0.9955,0.9961,0.9966,0.9973,0.9979,0.9987,0.9991,1.0001,1.0006,1.0014,1.0016,1.001,1.0033,1.0025,1.0035,1.0035,1.004,1.0039,1.0065,1.0043,1.0042,1.0042,1.0042,0,0.9931,0.9943,0.9947,0.9956,0.9969,0.9971,0.9984,0.9988,0.9995,1.0004,1.0003,1.0011,1.0014,1.0023,1.0025,1.0038,1.0041,1.0043,1.0043,1.0043,1.0043,1.0047,1.0046,1.0043,1.0043,1.0043,1.0043,0,0.9948,0.9952,0.9967,0.9975,0.9977,0.9986,0.9993,1.0001,1.0004,1.0016,1.0019,1.0024,1.0035,1.0038,1.005,1.0052,1.0068,1.0067,1.0065,1.0065,1.0075,1.0074,1.0104,1.0108,1.0083,1.0083,1.0083,0,0.9961,0.997,0.9979,0.9985,0.999,1.0,1.0006,1.0008,1.0015,1.0025,1.0032,1.0042,1.0051,1.0068,1.0073,1.0082,1.0082,1.0092,1.0083,1.0083,1.0083,1.0082,1.0083,1.0094,1.0094,1.0094,1.0094,0,0.9983,0.9985,0.9994,1.0004,1.0011,1.0019,1.0027,1.0032,1.0035,1.0042,1.0053,1.006,1.0073,1.0084,1.0094,1.0098,1.0097,1.0097,1.01,1.01,1.0099,1.01,1.007,1.0096,1.0096,1.0096,1.0096,1.0096,0.9999,1.0007,1.0015,1.0025,1.0031,1.0038,1.0047,1.0051,1.006,1.0071,1.0071,1.0083,1.0091,1.0104,1.0109,1.0118,1.0115,1.0119,1.012,1.0121,1.0122,1.0097,1.012,1.012,1.012,1.012,1.012,0,1.0022,1.0027,1.0036,1.0047,1.0055,1.0053,1.0061,1.0068,1.0079,1.0086,1.0094,1.0107,1.0117,1.0123,1.0133,1.0139,1.0139,1.0142,1.0142,1.0143,1.0124,1.0121,1.0142,1.0142,1.0142,1.0142,1.0142,1.0142,1.0035,1.0049,1.0051,1.0068,1.0072,1.0084,1.0089,1.0095,1.0101,1.0115,1.0124,1.0127,1.0134,1.0144,1.0154,1.0155,1.0159,1.0162,1.0164,1.0146,1.0144,1.0142,1.0139,1.0163,1.0163,1.0181,1.0181,1.0182]},{"header":{"parameterUnit":"m.s-1","parameterCategory":1,"la1":30.2991,"la2":30.254,"lo1":-89.0895,"lo2":-89.0444,"dy":0.0017,"dx":0.0017,"nx":28,"ny":28,"refTime":"2025-08-17T09:00:00:Z","depth":0,"parameterNumber":3,"parameterNumberName":"V-component_of_WINDS"},"data":[0,0,0,0,0,0,0,0,0,0,0,0,0,0,0,0,0,0,0,0,0,0,0,0,0,0,0,0,0,0,0,0,0,0,0,0,0,0,0,0,0,0,0,0,0,0,0,0,0,0,0,0,0,0,0,0,0,0,-2.6535,-2.6536,0,-2.6667,-2.6668,-2.667,-2.6676,-2.6674,-2.6672,-2.6671,-2.6807,-2.6812,-2.6817,0,0,0,0,0,0,0,0,0,0,0,0,0,-2.6288,-2.6292,-2.6535,-2.6536,-2.6538,-2.6667,-2.6669,-2.667,-2.6676,-2.6674,-2.6672,-2.667,-2.6805,-2.6811,-2.6817,0,0,0,0,0,0,0,0,0,0,0,0,0,-2.6405,-2.6294,-2.6534,-2.6556,-2.656,-2.6666,-2.6669,-2.6671,-2.6676,-2.6674,-2.6672,-2.6669,-2.6803,-2.6811,-2.6818,-2.6912,0,0,-2.6841,-2.6845,0,0,0,0,0,0,0,0,-2.6398,-2.6414,-2.6551,-2.6555,-2.6559,-2.6652,-2.6631,-2.6752,-2.6677,-2.6632,-2.6671,-2.6668,-2.6757,-2.6769,-2.6799,-2.6919,-2.6924,-2.6842,-2.6847,-2.685,-2.6852,0,0,0,0,0,0,0,-2.639,-2.6409,-2.6587,-2.6553,-2.6558,-2.656,-2.6574,-2.6654,-2.6706,-2.6636,-2.6636,-2.6652,-2.6759,-2.6791,-2.6802,-2.6926,-2.6842,-2.6849,-2.6853,-2.6856,-2.713,-2.7133,0,0,0,0,0,0,-2.6378,-2.6402,-2.6583,-2.6591,-2.6471,-2.6566,-2.6582,-2.6625,-2.6705,-2.6715,-2.6654,-2.6652,-2.6779,-2.6793,-2.6807,-2.6922,-2.685,-2.6857,-2.6861,-2.7128,-2.7131,-2.7134,0,0,0,0,0,0,-2.6372,-2.6394,-2.6577,-2.6497,-2.652,-2.6573,-2.6621,-2.6629,-2.6661,-2.6719,-2.6728,-2.6677,-2.6778,-2.6796,-2.6886,-2.6927,-2.686,-2.6867,-2.7125,-2.7129,-2.7133,-2.7154,0,0,0,0,0,0,-2.6365,-2.6392,-2.6428,-2.6497,-2.6524,-2.6654,-2.6624,-2.6633,-2.6674,-2.6672,-2.6744,-2.6753,-2.6778,-2.6875,-2.6894,-2.6936,-2.6873,-2.7121,-2.7126,-2.7131,-2.715,-2.7158,-2.7166,0,0,0,0,0,-2.6357,-2.6429,-2.643,-2.6452,-2.6571,-2.6657,-2.6672,-2.6699,-2.6677,-2.6714,-2.6752,-2.6751,-2.6919,-2.6884,-2.6905,-2.6951,-2.7119,-2.7125,-2.7131,-2.7146,-2.7157,-2.7165,0,0,0,0,0,0,-2.6363,-2.6438,-2.644,-2.6537,-2.6591,-2.6658,-2.6705,-2.6709,-2.677,-2.6766,-2.6796,-2.6812,-2.6902,-2.6935,-2.6894,-2.7046,-2.7017,-2.7027,-2.7021,-2.7031,-2.7039,-2.7029,-2.688,0,0,0,0,0,-2.6376,-2.644,-2.6502,-2.6581,-2.6608,-2.6652,-2.669,-2.6706,-2.6763,-2.6786,-2.683,-2.6885,-2.695,-2.6993,-2.7056,-2.7155,-2.717,-2.7197,-2.7205,-2.7211,-2.722,-2.7275,-2.7287,-2.7154,-2.7154,-2.7154,0,0,-2.6403,-2.6452,-2.649,-2.6584,-2.6627,-2.6692,-2.6671,-2.6741,-2.679,-2.6796,-2.6884,-2.6918,-2.6982,-2.7077,-2.7121,-2.7107,-2.726,-2.7219,-2.7223,-2.7229,-2.7282,-2.7295,-2.7306,-2.7158,-2.7157,-2.7157,0,0,-2.6486,-2.6529,-2.66,-2.6644,-2.6709,-2.6738,-2.6755,-2.6822,-2.6845,-2.6933,-2.694,-2.6998,-2.711,-2.7155,-2.7193,-2.7293,-2.7294,-2.7313,-2.7354,-2.7407,-2.7417,-2.7427,-2.7462,-2.7475,-2.7321,-2.7321,-2.7321,0,-2.6511,-2.661,-2.6636,-2.6706,-2.6747,-2.6756,-2.6829,-2.687,-2.6953,-2.6981,-2.6965,-2.7106,-2.7149,-2.7255,-2.7279,-2.7309,-2.733,-2.7305,-2.7414,-2.7423,-2.7433,-2.7467,-2.748,-2.7323,-2.7323,-2.7323,-2.7323,0,-2.6638,-2.6706,-2.6755,-2.6835,-2.6882,-2.6953,-2.699,-2.7035,-2.7046,-2.7077,-2.7167,-2.7219,-2.7294,-2.732,-2.7332,-2.7427,-2.7417,-2.7407,-2.7378,-2.7446,-2.7479,-2.7493,-2.7326,-2.7325,-2.7324,-2.7324,0,0,-2.6728,-2.6822,-2.684,-2.6876,-2.6949,-2.7002,-2.7074,-2.7146,-2.7184,-2.7241,-2.7301,-2.7396,-2.7387,-2.743,-2.7447,-2.7494,-2.757,-2.7478,-2.748,-2.7494,-2.7678,-2.7686,-2.7701,-2.7572,-2.7574,-2.7576,-2.7673,0,-2.6819,-2.6946,-2.6972,-2.7082,-2.7145,-2.7154,-2.7217,-2.7268,-2.7299,-2.7357,-2.7391,-2.7458,-2.7441,-2.7467,-2.7513,-2.7551,-2.7608,-2.7544,-2.7629,-2.7631,-2.7612,-2.7718,-2.7726,-2.7815,-2.7686,-2.7688,-2.769,0,-2.6942,-2.7001,-2.7118,-2.7182,-2.721,-2.7265,-2.7334,-2.739,-2.7449,-2.7467,-2.7515,-2.7528,-2.7602,-2.757,-2.7673,-2.763,-2.7666,-2.7689,-2.7694,-2.7703,-2.7665,-2.773,-2.7844,-2.7857,-2.771,-2.7709,-2.7707,0,-2.6996,-2.7106,-2.7189,-2.722,-2.7298,-2.7337,-2.7371,-2.7427,-2.7469,-2.7529,-2.7557,-2.7625,-2.7662,-2.7715,-2.7746,-2.7719,-2.7847,-2.7817,-2.7865,-2.7864,-2.7892,-2.789,-2.8013,-2.7915,-2.7914,-2.7914,-2.7914,0,-2.7095,-2.7166,-2.7215,-2.7266,-2.7346,-2.7375,-2.7454,-2.7487,-2.7538,-2.7596,-2.7609,-2.7663,-2.77,-2.776,-2.7785,-2.7867,-2.7884,-2.7901,-2.7907,-2.7901,-2.7898,-2.7925,-2.7919,-2.7918,-2.7917,-2.7916,-2.7916,0,-2.7169,-2.7205,-2.7297,-2.7363,-2.7381,-2.7437,-2.7493,-2.7544,-2.7574,-2.7648,-2.7667,-2.7715,-2.7787,-2.7822,-2.7911,-2.7928,-2.8021,-2.8023,-2.8001,-2.8003,-2.8049,-2.8045,-2.8194,-2.8216,-2.8103,-2.8104,-2.8105,0,-2.723,-2.7284,-2.7356,-2.7396,-2.7431,-2.7495,-2.7538,-2.7569,-2.7613,-2.7685,-2.7727,-2.7798,-2.7858,-2.7971,-2.8014,-2.8082,-2.8086,-2.8134,-2.8096,-2.8088,-2.8087,-2.8083,-2.8089,-2.814,-2.8141,-2.8142,-2.8143,0,-2.7334,-2.7349,-2.741,-2.7477,-2.7528,-2.7583,-2.7637,-2.7669,-2.7709,-2.7758,-2.7831,-2.7876,-2.7967,-2.8038,-2.811,-2.8145,-2.8151,-2.8154,-2.8169,-2.8163,-2.8148,-2.8157,-2.8019,-2.8151,-2.815,-2.8149,-2.8149,-2.8149,-2.7403,-2.7452,-2.751,-2.7578,-2.7622,-2.7672,-2.7723,-2.7759,-2.7821,-2.7897,-2.7911,-2.7989,-2.8047,-2.8143,-2.8181,-2.8242,-2.8232,-2.8253,-2.8259,-2.8263,-2.8266,-2.8138,-2.8255,-2.8255,-2.8255,-2.8255,-2.8254,0,-2.7508,-2.7546,-2.7608,-2.7682,-2.7736,-2.7736,-2.7796,-2.7841,-2.7909,-2.7962,-2.802,-2.8104,-2.8173,-2.8222,-2.8292,-2.8332,-2.8336,-2.8349,-2.8347,-2.8355,-2.8271,-2.8251,-2.8344,-2.8344,-2.8344,-2.8344,-2.8344,-2.8344,-2.7569,-2.7651,-2.7673,-2.7778,-2.7816,-2.7891,-2.7925,-2.7972,-2.8015,-2.8108,-2.8165,-2.8196,-2.8248,-2.8322,-2.8386,-2.8398,-2.8424,-2.8437,-2.845,-2.837,-2.8361,-2.8352,-2.8333,-2.8442,-2.8442,-2.8529,-2.8529,-2.853]}]]